Zurück zum Katalog

YZ-1 R/B

AktivMEO
NORAD 58656·ROCKET BODY·🇨🇳 China

Gestartet Dec 26, 2023 von Xichang Satellite Launch Center

Loading…

Nächste Überflüge (nächste 24 Stunden)

TLE

AktuellSource: Space-Track

Epoche: Sep 11, 2026, 23:29 UTC

1 58656U 23207C   26254.97896163 -.00000030  00000-0  00000-0 0  9996
2 58656  55.9188  61.8922 0025711 348.1597  11.8003  1.79266045 17763

Verfolge YZ-1 R/B in Echtzeit mit AllMySat

Download on the App Store